"2009-11-14 00:00:00",1414366,9.04,55.47,3.018,0.636,0.45,99.31197,-2.453,-1.133,96.9,0,109.5,13.63,-1.71,17.5
"2009-11-14 00:00:30",1414367,8.96,54.29,3.106,0.834,-0.929,99.29639,-2.493,-1.156,96.9,0,109.4,13.63,-1.75,16.3
"2009-11-14 00:01:00",1414368,8.36,55.56,3.105,0.833,-0.476,99.28819,-2.514,-1.154,96.9,0,109.4,13.64,-1.77,17.6
"2009-11-14 00:01:30",1414369,8.42,52.8,3.487,0.761,1.457,99.2862,-2.519,-1.167,96.9,0,109.4,13.64,-1.78,14.8
"2009-11-14 00:02:00",1414370,8.66,53.48,3.417,0.751,1.633,99.2862,-2.519,-1.198,96.9,0,109.4,13.64,-1.78,15.5
"2009-11-14 00:02:30",1414371,8.43,55.03,2.955,0.785,0.411,99.2862,-2.519,-1.189,96.9,0,109.4,13.64,-1.78,17.0
"2009-11-14 00:03:00",1414372,8.56,52.56,4.465,0.605,-1.121,99.2862,-2.519,-1.191,96.9,0,109.4,13.64,-1.78,14.6
"2009-11-14 00:03:30",1414373,8.53,52.85,2.468,0.832,2.116,99.2862,-2.519,-1.217,96.9,0,109.4,13.64,-1.78,14.8
"2009-11-14 00:04:00",1414374,8.54,54.28,3.845,0.578,3.834,99.28393,-2.525,-1.226,96.9,0,109.4,13.64,-1.78,16.3
"2009-11-14 00:04:30",1414375,8.35,54.53,4.281,0.676,4.122,99.27402,-2.55,-1.202,96.9,0,109.4,13.64,-1.81,16.5
"2009-11-14 00:05:00",1414376,7.956,55.07,4.503,0.781,2.978,99.26241,-2.579,-1.225,96.9,0,109.4,13.64,-1.84,17.1
"2009-11-14 00:05:30",1414377,8.2,54.11,3.289,0.749,2.772,99.25703,-2.593,-1.246,96.9,0,109.4,13.64,-1.85,16.1
"2009-11-14 00:06:00",1414378,7.878,56.85,4.568,0.829,2.945,99.25391,-2.601,-1.253,96.9,0,109.4,13.64,-1.86,18.8
"2009-11-14 00:06:30",1414379,7.142,55.66,3.907,0.763,2.316,99.25249,-2.605,-1.253,96.9,0,109.4,13.64,-1.86,17.7
"2009-11-14 00:07:00",1414380,7.161,58.05,4.404,0.886,2.052,99.2522,-2.605,-1.251,96.9,0,109.4,13.64,-1.86,20.0
"2009-11-14 00:07:30",1414381,7.003,59.1,4.511,0.682,1.423,99.2522,-2.605,-1.263,96.9,0,109.4,13.64,-1.86,21.1
"2009-11-14 00:08:00",1414382,7.598,51.22,3.959,0.714,1.52,99.2522,-2.605,-1.278,96.9,0,109.4,13.64,-1.86,13.2
"2009-11-14 00:08:30",1414383,7.033,61.21,5.001,0.834,1.809,99.2522,-2.605,-1.26,96.9,0,109.4,13.64,-1.86,23.2
"2009-11-14 00:09:00",1414384,6.87,58.68,5.627,0.688,3.406,99.2522,-2.605,-1.266,96.9,0,109.4,13.64,-1.86,20.7
"2009-11-14 00:09:30",1414385,6.31,69.84,8.02,0.705,-10.42,99.2522,-2.605,-1.257,96.9,0,109.4,13.63,-1.86,31.8
"2009-11-14 00:10:00",1414386,6.198,73.47,17.28,0.651,-10.38,99.2522,-2.605,-1.277,96.9,0,109.4,13.63,-1.86,35.5
"2009-11-14 00:10:30",1414387,6.483,61.88,6.334,0.848,-3.394,99.2522,-2.605,-1.256,96.9,0,109.4,13.64,-1.86,23.9
"2009-11-14 00:11:00",1414388,7.081,55.7,4.254,0.816,-3.553,99.2522,-2.605,-1.288,96.9,0,109.4,13.64,-1.86,17.7
"2009-11-14 00:11:30",1414389,6.708,59.1,4.243,0.989,-4.151,99.2522,-2.605,-1.298,96.9,0,109.4,13.64,-1.86,21.1
"2009-11-14 00:12:00",1414390,6.811,62.07,6.368,0.745,-3.006,99.2522,-2.605,-1.288,96.9,0,109.4,13.64,-1.86,24.1
"2009-11-14 00:12:30",1414391,6.525,82.1,11.48,0.89,-5.025,99.25193,-2.606,-1.282,97,0,109.4,13.64,-1.86,44.1
"2009-11-14 00:13:00",1414392,6.209,81.7,3.359,0.75,-3.814,99.25164,-2.607,-1.313,96.9,0,109.4,13.64,-1.86,43.7
"2009-11-14 00:13:30",1414393,6.314,75.79,6.019,0.712,-1.721,99.24966,-2.612,-1.312,97,0,109.4,13.64,-1.87,37.8
"2009-11-14 00:14:00",1414394,6.665,59.14,3.462,0.641,-0.734,99.24796,-2.616,-1.289,97,0,109.4,13.64,-1.87,21.1
"2009-11-14 00:14:30",1414395,6.376,57.67,3.209,0.74,0.308,99.24059,-2.635,-1.288,97,0,109.4,13.64,-1.89,19.7
"2009-11-14 00:15:00",1414396,6.256,53.51,3.243,0.806,1.344,99.23663,-2.645,-1.31,97,0,109.4,13.64,-1.90,15.5
"2009-11-14 00:15:30",1414397,6.175,53.35,2.866,0.732,2.043,99.23804,-2.642,-1.303,97,0,109.4,13.64,-1.90,15.3
"2009-11-14 00:16:00",1414398,6.204,53.34,3.515,0.604,2.067,99.23294,-2.654,-1.304,97,0,109.5,13.64,-1.91,15.3
"2009-11-14 00:16:30",1414399,6.269,56.21,3.56,0.708,2.104,99.23351,-2.653,-1.299,97,0,109.4,13.64,-1.91,18.2
"2009-11-14 00:17:00",1414400,6.277,54.94,4.012,0.725,1.879,99.22926,-2.664,-1.304,97,0,109.4,13.64,-1.92,16.9
"2009-11-14 00:17:30",1414401,6.384,55.04,3.669,0.708,2.39,99.22755,-2.668,-1.31,97,0,109.4,13.64,-1.93,17.0
"2009-11-14 00:18:00",1414402,6.498,54.34,3.457,0.627,2.446,99.2284,-2.666,-1.315,97,0,109.5,13.65,-1.92,16.3
"2009-11-14 00:18:30",1414403,6.101,58.78,3.651,0.729,2.248,99.22755,-2.668,-1.309,97,0,109.4,13.65,-1.93,20.8
"2009-11-14 00:19:00",1414404,6.598,57.16,3.397,0.781,2.252,99.22726,-2.669,-1.319,97,0,109.4,13.65,-1.93,19.2
"2009-11-14 00:19:30",1414405,6.664,59.93,2.599,0.759,2.598,99.22472,-2.675,-1.326,97,0,109.4,13.65,-1.93,21.9
"2009-11-14 00:20:00",1414406,6.004,65.54,5.442,0.712,2.405,99.22923,-2.664,-1.329,97,0,109.4,13.65,-1.92,27.5
"2009-11-14 00:20:30",1414407,5.879,66.41,7.914,0.948,2.586,99.22839,-2.666,-1.302,97,0,109.4,13.65,-1.92,28.4
"2009-11-14 00:21:00",1414408,6.168,59.55,3.254,0.806,2.345,99.23235,-2.656,-1.327,97,0,109.4,13.65,-1.91,21.5
"2009-11-14 00:21:30",1414409,6.066,61.92,3.067,0.766,2.416,99.23405,-2.652,-1.316,97,0,109.4,13.65,-1.91,23.9
"2009-11-14 00:22:00",1414410,6.41,57.9,3.01,0.625,2.213,99.2346,-2.65,-1.317,97,0,109.5,13.65,-1.91,19.9
"2009-11-14 00:22:30",1414411,6.614,56.92,4.374,0.67,2.541,99.23206,-2.657,-1.31,97,0,109.4,13.65,-1.91,18.9
"2009-11-14 00:23:00",1414412,6.404,58.6,3.584,0.858,2.399,99.23263,-2.655,-1.322,97,0,109.4,13.65,-1.91,20.6
"2009-11-14 00:23:30",1414413,6.188,56.33,4.166,0.779,2.657,99.23205,-2.657,-1.31,97,0,109.4,13.65,-1.91,18.3
"2009-11-14 00:24:00",1414414,6.282,55.6,3.594,0.637,2.418,99.23599,-2.647,-1.314,97,0,109.5,13.65,-1.90,17.6
"2009-11-14 00:24:30",1414415,6.076,56.46,5.257,0.816,2.342,99.23685,-2.645,-1.299,97,0,109.4,13.65,-1.90,18.5
"2009-11-14 00:25:00",1414416,6.159,55.03,4.564,0.773,2.331,99.2374,-2.643,-1.315,97,0,109.4,13.65,-1.90,17.0
"2009-11-14 00:25:30",1414417,5.721,58.42,4.825,0.706,2.432,99.23486,-2.65,-1.314,97.1,0,109.4,13.65,-1.91,20.4
"2009-11-14 00:26:00",1414418,5.956,55.01,3.359,0.748,2.413,99.23766,-2.642,-1.328,97,0,109.4,13.65,-1.90,17.0
"2009-11-14 00:26:30",1414419,4.171,44,6.903,0.724,-1.037,99.23457,-2.65,-1.61,96.8,0,109.4,13.65,-1.91,6.0
"2009-11-14 00:27:00",1414420,4.324,46.64,4.766,0.833,-0.374,99.23596,-2.647,-1.473,96.9,0,109.4,13.65,-1.90,8.6
"2009-11-14 00:27:30",1414421,5.667,51.03,5.36,1.117,2.728,99.23483,-2.65,-1.432,96.9,0,109.4,13.65,-1.91,13.0
"2009-11-14 00:28:00",1414422,6.295,50.49,3.925,0.674,4.526,99.23426,-2.651,-1.291,97.1,0,109.4,13.65,-1.91,12.5
"2009-11-14 00:28:30",1414423,6.505,48.95,3.762,0.665,4.571,99.23201,-2.657,-1.298,97.1,0,109.4,13.65,-1.91,11.0
"2009-11-14 00:29:00",1414424,6.313,50.65,3.4,0.606,4.319,99.23736,-2.643,-1.313,97.1,0,109.4,13.65,-1.90,12.7
"2009-11-14 00:29:30",1414425,6.38,48.69,3.176,0.824,4.302,99.2385,-2.64,-1.315,97.1,0,109.4,13.65,-1.90,10.7
"2009-11-14 00:30:00",1414426,6.311,48.7,3.092,0.616,3.842,99.24444,-2.625,-1.324,97.1,0,109.4,13.66,-1.88,10.7
"2009-11-14 00:30:30",1414427,5.732,45.91,2.507,0.854,3.467,99.2487,-2.614,-1.315,97.1,0,109.4,13.66,-1.87,7.9
"2009-11-14 00:31:00",1414428,5.828,46.26,3.38,0.883,3.132,99.24786,-2.617,-1.316,97.1,0,109.4,13.66,-1.87,8.3
"2009-11-14 00:31:30",1414429,5.556,46.47,4.16,0.992,2.773,99.25151,-2.607,-1.306,97.1,0,109.4,13.66,-1.86,8.5
"2009-11-14 00:32:00",1414430,3.805,36.85,7.508,1.305,-0.113,99.24785,-2.617,-1.586,96.8,0,109.4,13.66,-1.87,358.9
"2009-11-14 00:32:30",1414431,3.324,33.05,1.944,0.335,-0.871,99.24529,-2.623,-1.523,96.9,0,109.4,13.66,-1.88,355.0
"2009-11-14 00:33:00",1414432,5.421,44.56,3.779,0.777,3.426,99.23594,-2.647,-1.344,97.1,0,109.4,13.66,-1.90,6.6
"2009-11-14 00:33:30",1414433,5.574,44.33,4.267,0.652,4.21,99.23424,-2.651,-1.284,97.1,0,109.4,13.66,-1.91,6.3
"2009-11-14 00:34:00",1414434,5.243,43.32,3.919,0.832,4.31,99.23452,-2.65,-1.316,97.1,0,109.5,13.66,-1.91,5.3
"2009-11-14 00:34:30",1414435,4.512,40.68,4.092,0.716,3.896,99.23424,-2.651,-1.316,97.1,0,109.4,13.66,-1.91,2.7
"2009-11-14 00:35:00",1414436,3.64,38.62,6.373,1.271,1.255,99.22916,-2.664,-1.574,96.8,0,109.4,13.66,-1.92,0.6
"2009-11-14 00:35:30",1414437,2.834,36.16,6.421,1.082,0.646,99.22066,-2.686,-1.573,96.8,0,109.4,13.66,-1.94,358.2
"2009-11-14 00:36:00",1414438,2.571,33.43,4.987,0.81,-0.282,99.20848,-2.717,-1.516,96.9,0,109.4,13.66,-1.97,355.4
"2009-11-14 00:36:30",1414439,4.101,41.66,4.678,0.858,3.089,99.19997,-2.739,-1.449,97,0,109.4,13.67,-2.00,3.7
"2009-11-14 00:37:00",1414440,3.77,43.03,6.264,1.046,2.878,99.19911,-2.741,-1.43,97,0,109.4,13.67,-2.00,5.0
"2009-11-14 00:37:30",1414441,3.536,52.05,7.199,0.952,3.109,99.19884,-2.741,-1.431,97,0,109.4,13.67,-2.00,14.0
"2009-11-14 00:38:00",1414442,3.047,44.47,5.386,1.116,0.863,99.19968,-2.739,-1.457,97,0,109.4,13.67,-2.00,6.5
"2009-11-14 00:38:30",1414443,2.607,42.69,6.049,1.029,-0.152,99.19939,-2.74,-1.574,96.9,0,109.4,13.67,-2.00,4.7
"2009-11-14 00:39:00",1414444,3.157,34.91,7.883,1.061,0.396,99.20024,-2.738,-1.64,96.7,0,109.4,13.67,-2.00,356.9
"2009-11-14 00:39:30",1414445,3.287,37.12,6.033,1.24,1.737,99.2022,-2.733,-1.467,96.9,0,109.4,13.67,-1.99,359.1
"2009-11-14 00:40:00",1414446,3.752,46.51,8.01,1.109,2.881,99.20277,-2.731,-1.449,97,0,109.4,13.67,-1.99,8.5
"2009-11-14 00:40:30",1414447,3.377,41.76,6.678,0.98,2.712,99.2022,-2.733,-1.447,96.9,0,109.4,13.67,-1.99,3.8
"2009-11-14 00:41:00",1414448,2.298,32.51,6.56,1.148,0.702,99.2022,-2.733,-1.535,96.9,0,109.4,13.67,-1.99,354.5
"2009-11-14 00:41:30",1414449,1.556,28.48,3.689,0.489,-0.663,99.20277,-2.731,-1.597,96.8,0,109.4,13.67,-1.99,350.5
"2009-11-14 00:42:00",1414450,2.276,34.02,10.65,1.336,0.031,99.20249,-2.732,-1.656,96.8,0,109.4,13.67,-1.99,356.0
"2009-11-14 00:42:30",1414451,2.901,39.05,7.911,1.199,1.133,99.20249,-2.732,-1.532,96.9,0,109.4,13.67,-1.99,1.0
"2009-11-14 00:43:00",1414452,2.017,30.9,6.239,1.117,0.87,99.20135,-2.735,-1.534,96.9,0,109.4,13.67,-1.99,352.9
"2009-11-14 00:43:30",1414453,2.665,22.36,8.96,1.093,2.582,99.20417,-2.728,-1.47,96.9,0,109.4,13.67,-1.99,344.4
"2009-11-14 00:44:00",1414454,2.69,24.58,7.898,1.09,2.117,99.20275,-2.731,-1.537,96.9,0,109.4,13.67,-1.99,346.6
"2009-11-14 00:44:30",1414455,0.984,19.65,10.04,0.191,-1.24,99.20304,-2.731,-1.665,96.7,0,109.4,13.7,-1.99,341.6
"2009-11-14 00:45:00",1414456,1.896,47.92,17.76,1.171,-0.41,99.20332,-2.73,-1.65,96.8,0,109.4,13.67,-1.99,9.9
"2009-11-14 00:45:30",1414457,1.637,97.4,16.45,1.28,0.743,99.20078,-2.736,-1.507,96.9,0,109.4,13.67,-1.99,59.4
"2009-11-14 00:46:00",1414458,0.931,103.8,69.44,1.183,0.484,99.20105,-2.736,-1.569,96.8,0,109.4,13.67,-1.99,65.8
"2009-11-14 00:46:30",1414459,0.459,122.5,16.18,0.214,-1.958,99.19795,-2.744,-1.716,96.7,0,109.4,13.71,-2.00,84.5
"2009-11-14 00:47:00",1414460,1.516,142,15.55,1.471,0.413,99.19737,-2.745,-1.48,96.9,0,109.4,13.68,-2.00,104.0
"2009-11-14 00:47:30",1414461,2.013,169.3,19.92,1.11,2.133,99.20048,-2.737,-1.543,96.8,0,109.4,13.68,-1.99,131.3
"2009-11-14 00:48:00",1414462,0.365,50.58,63.24,0.612,-1.762,99.20161,-2.734,-1.723,96.7,0,109.4,13.68,-1.99,12.6
"2009-11-14 00:48:30",1414463,1.101,358.2,12.81,1.098,0.037,99.19823,-2.743,-1.627,96.7,0,109.4,13.68,-2.00,320.2
"2009-11-14 00:49:00",1414464,0.984,334.5,16.93,1.035,-1.233,99.20105,-2.736,-1.577,96.8,0,109.4,13.68,-1.99,296.5
"2009-11-14 00:49:30",1414465,1.523,351.2,8.23,1,-0.687,99.20275,-2.731,-1.596,96.8,0,109.4,13.68,-1.99,313.2
"2009-11-14 00:50:00",1414466,1.603,2.476,10.21,1.112,0.288,99.20304,-2.731,-1.631,96.7,0,109.4,13.68,-1.99,324.5
"2009-11-14 00:50:30",1414467,2.327,354.9,5.026,1.285,0.137,99.20389,-2.729,-1.565,96.8,0,109.4,13.68,-1.99,316.9
"2009-11-14 00:51:00",1414468,2.154,347.3,8.45,1.173,0.501,99.20473,-2.726,-1.513,96.9,0,109.4,13.68,-1.98,309.3
"2009-11-14 00:51:30",1414469,2.182,2.91,31.46,1.244,1.305,99.20473,-2.726,-1.537,96.9,0,109.4,13.68,-1.98,324.9
"2009-11-14 00:52:00",1414470,1.57,9.61,16.74,1.059,0.135,99.20417,-2.728,-1.506,96.9,0,109.4,13.68,-1.99,331.6
"2009-11-14 00:52:30",1414471,1.081,22.83,14.16,1.227,-0.682,99.20558,-2.724,-1.584,96.8,0,109.4,13.68,-1.98,344.8
"2009-11-14 00:53:00",1414472,1.098,36.12,13.31,1.391,-0.982,99.20727,-2.72,-1.569,96.8,0,109.4,13.68,-1.98,358.1
"2009-11-14 00:53:30",1414473,0.71,35.03,22.64,0.164,-2.886,99.20615,-2.723,-1.706,96.7,0,109.4,13.72,-1.98,357.0
"2009-11-14 00:54:00",1414474,0.752,36.99,8.87,0.284,-2.78,99.20418,-2.728,-1.701,96.7,0,109.4,13.72,-1.99,359.0
"2009-11-14 00:54:30",1414475,1.954,31.67,11.51,1.231,0.131,99.20615,-2.723,-1.524,96.8,0,109.4,13.69,-1.98,353.7
"2009-11-14 00:55:00",1414476,2.1,36.52,8.24,1.182,0.938,99.20811,-2.718,-1.513,96.9,0,109.4,13.69,-1.98,358.5
"2009-11-14 00:55:30",1414477,2.151,58.82,7.975,1.008,1.461,99.20615,-2.723,-1.44,96.9,0,109.4,13.69,-1.98,20.8
"2009-11-14 00:56:00",1414478,1.582,65.02,22.43,1.18,1.06,99.20558,-2.724,-1.453,96.9,0,109.4,13.69,-1.98,27.0
"2009-11-14 00:56:30",1414479,0.386,49.72,36.81,0.81,-2.089,99.21148,-2.709,-1.669,96.7,0,109.4,13.69,-1.97,11.7
"2009-11-14 00:57:00",1414480,-0.074,23.63,82.6,0.069,-3.27,99.21065,-2.711,-1.687,96.6,0,109.4,13.72,-1.97,345.6
"2009-11-14 00:57:30",1414481,-0.034,54.19,12.82,0.068,-3.432,99.20951,-2.714,-1.69,96.6,0,109.4,13.72,-1.97,16.2
"2009-11-14 00:58:00",1414482,-0.018,57.12,34.23,0.121,-2.955,99.21148,-2.709,-1.687,96.6,0,109.4,13.72,-1.97,19.1
"2009-11-14 00:58:30",1414483,0.193,163.3,23.36,0.144,-2.706,99.21177,-2.708,-1.701,96.6,0,109.4,13.72,-1.97,125.3
"2009-11-14 00:59:00",1414484,0.444,172,16.01,0.168,-2.013,99.21233,-2.707,-1.678,96.6,0,109.4,13.72,-1.96,134.0
"2009-11-14 00:59:30",1414485,2.041,180.2,14.41,1.194,2.146,99.21204,-2.708,-1.442,96.9,0,109.4,13.69,-1.97,142.2
"2009-11-14 01:00:00",1414486,2.276,175.6,12.97,0.772,3.141,99.21065,-2.711,-1.397,96.9,0,109.4,13.69,-1.97,137.6
"2009-11-14 01:00:30",1414487,1.691,138.6,15.35,1.178,1.033,99.21261,-2.706,-1.501,96.8,0,109.4,13.69,-1.96,100.6
"2009-11-14 01:01:00",1414488,0.348,121.6,6.542,0.124,-2.75,99.21346,-2.704,-1.685,96.6,0,109.4,13.72,-1.96,83.6
"2009-11-14 01:01:30",1414489,0.307,114.7,10.57,0.074,-2.895,99.21374,-2.703,-1.704,96.6,0,109.4,13.72,-1.96,76.7
"2009-11-14 01:02:00",1414490,0.382,111.7,8.41,0.142,-2.76,99.21317,-2.705,-1.694,96.6,0,109.4,13.72,-1.96,73.7
"2009-11-14 01:02:30",1414491,0.427,88.4,4.981,0.119,-1.43,99.21346,-2.704,-1.704,96.6,0,109.4,13.72,-1.96,50.4
"2009-11-14 01:03:00",1414492,0.627,87.1,10.03,0.156,-1.097,99.21289,-2.706,-1.634,96.7,0,109.4,13.7,-1.96,49.1
"2009-11-14 01:03:30",1414493,2.671,86.7,6.002,1.016,1.981,99.21289,-2.706,-1.444,96.9,0,109.4,13.7,-1.96,48.7
"2009-11-14 01:04:00",1414494,3.249,77.05,8.81,0.784,2.88,99.21401,-2.703,-1.411,96.9,0,109.4,13.7,-1.96,39.1
"2009-11-14 01:04:30",1414495,2.711,75.28,6.654,1.098,1.672,99.21261,-2.706,-1.444,96.9,0,109.4,13.7,-1.96,37.3
"2009-11-14 01:05:00",1414496,1.25,80.5,5.071,0.922,-0.767,99.21374,-2.703,-1.661,96.7,0,109.4,13.7,-1.96,42.5
"2009-11-14 01:05:30",1414497,0.807,97.4,7.851,0.061,-2.02,99.21317,-2.705,-1.669,96.7,0,109.4,13.73,-1.96,59.4
"2009-11-14 01:06:00",1414498,0.96,83.2,8.72,0.64,-1.128,99.21233,-2.707,-1.524,96.8,0,109.4,13.7,-1.96,45.2
"2009-11-14 01:06:30",1414499,2.144,111.9,16.41,1.201,1.116,99.21317,-2.705,-1.546,96.8,0,109.4,13.7,-1.96,73.9
"2009-11-14 01:07:00",1414500,2.537,141.2,5.89,1.149,1.443,99.21486,-2.701,-1.478,96.8,0,109.4,13.7,-1.96,103.2
"2009-11-14 01:07:30",1414501,3.054,147.5,5.939,0.816,2.208,99.21401,-2.703,-1.475,96.9,0,109.4,13.7,-1.96,109.5
"2009-11-14 01:08:00",1414502,2.197,139.7,7.432,1.166,1.007,99.21346,-2.704,-1.473,96.9,0,109.4,13.7,-1.96,101.7
"2009-11-14 01:08:30",1414503,1.923,146.7,7.133,1.137,0.117,99.21346,-2.704,-1.515,96.8,0,109.4,13.7,-1.96,108.7
"2009-11-14 01:09:00",1414504,0.87,138.1,2.902,0.084,-2.315,99.21486,-2.701,-1.651,96.7,0,109.4,13.73,-1.96,100.1
"2009-11-14 01:09:30",1414505,1.254,131.7,3.302,0.754,-1.939,99.21317,-2.705,-1.656,96.7,0,109.4,13.7,-1.96,93.7
"2009-11-14 01:10:00",1414506,2.122,135.1,6.737,1.2,0.82,99.21261,-2.706,-1.478,96.9,0,109.4,13.7,-1.96,97.1
"2009-11-14 01:10:30",1414507,2.708,134.5,7.525,1.033,2.021,99.21261,-2.706,-1.44,96.9,0,109.4,13.7,-1.96,96.5
"2009-11-14 01:11:00",1414508,3.002,132.2,6.11,1.099,2.449,99.21261,-2.706,-1.37,97,0,109.4,13.7,-1.96,94.2
"2009-11-14 01:11:30",1414509,2.481,137.7,6.569,1.191,0.649,99.21374,-2.703,-1.494,96.8,0,109.4,13.7,-1.96,99.7
"2009-11-14 01:12:00",1414510,1.183,138.6,3.52,0.472,-1.483,99.21289,-2.706,-1.551,96.8,0,109.4,13.73,-1.96,100.6
"2009-11-14 01:12:30",1414511,1.305,140.5,6.129,0.325,-1.965,99.21317,-2.705,-1.652,96.7,0,109.4,13.7,-1.96,102.5
"2009-11-14 01:13:00",1414512,1.463,135.5,3.942,0.913,-0.311,99.21204,-2.708,-1.526,96.8,0,109.4,13.7,-1.97,97.5
"2009-11-14 01:13:30",1414513,2.613,128,11.26,1.199,2.104,99.21204,-2.708,-1.406,97,0,109.4,13.7,-1.97,90.0
"2009-11-14 01:14:00",1414514,2.31,141.8,8.17,1.247,1.562,99.21458,-2.701,-1.391,96.9,0,109.4,13.69,-1.96,103.8
"2009-11-14 01:14:30",1414515,2.305,166.7,28.66,1.133,2.07,99.2143,-2.702,-1.401,97,0,109.4,13.69,-1.96,128.7
"2009-11-14 01:15:00",1414516,1.58,169.2,13.97,1.321,0.196,99.2143,-2.702,-1.587,96.7,0,109.4,13.69,-1.96,131.2
"2009-11-14 01:15:30",1414517,0.887,166.7,8.87,0.22,-2.1,99.21571,-2.698,-1.641,96.7,0,109.4,13.72,-1.96,128.7
"2009-11-14 01:16:00",1414518,0.799,129.5,8,0.312,-2.222,99.2143,-2.702,-1.644,96.7,0,109.4,13.72,-1.96,91.5
"2009-11-14 01:16:30",1414519,2.39,148.2,10.24,1.166,0.57,99.21571,-2.698,-1.6,96.7,0,109.4,13.69,-1.96,110.2
"2009-11-14 01:17:00",1414520,2.542,160.6,8.02,1.079,2.446,99.21401,-2.703,-1.333,97,0,109.4,13.7,-1.96,122.6
"2009-11-14 01:17:30",1414521,2.23,154.3,7.901,1.083,1.852,99.21346,-2.704,-1.403,96.9,0,109.4,13.69,-1.96,116.3
"2009-11-14 01:18:00",1414522,1.968,163.1,7.853,1.239,1.54,99.21513,-2.7,-1.413,96.9,0,109.4,13.69,-1.96,125.1
"2009-11-14 01:18:30",1414523,1.118,147.5,9.69,0.922,-1.751,99.21513,-2.7,-1.639,96.7,0,109.4,13.69,-1.96,109.5
"2009-11-14 01:19:00",1414524,0.839,153.6,3.844,0.078,-2.418,99.21627,-2.697,-1.631,96.7,0,109.4,13.73,-1.95,115.6
"2009-11-14 01:19:30",1414525,0.704,148.8,9.76,0.13,-2.173,99.21627,-2.697,-1.638,96.7,0,109.4,13.73,-1.95,110.8
"2009-11-14 01:20:00",1414526,1.433,152.6,13.19,0.945,-0.413,99.21598,-2.698,-1.506,96.8,0,109.4,13.7,-1.96,114.6
"2009-11-14 01:20:30",1414527,3.242,154.6,9.7,0.898,3.049,99.2143,-2.702,-1.337,97,0,109.4,13.7,-1.96,116.6
"2009-11-14 01:21:00",1414528,3.782,181.2,14.92,0.771,3.36,99.21655,-2.696,-1.352,97,0,109.5,13.7,-1.95,143.2
"2009-11-14 01:21:30",1414529,2.549,185.3,20.8,1.296,1.571,99.21627,-2.697,-1.402,96.9,0,109.4,13.7,-1.95,147.3
"2009-11-14 01:22:00",1414530,2.052,182.5,17.43,1.216,0.227,99.21655,-2.696,-1.582,96.7,0,109.4,13.7,-1.95,144.5
"2009-11-14 01:22:30",1414531,1.191,165.5,12.08,0.161,-1.663,99.21683,-2.696,-1.616,96.7,0,109.4,13.73,-1.95,127.5
"2009-11-14 01:23:00",1414532,1.755,175.2,6.843,0.885,-1,99.21739,-2.694,-1.633,96.7,0,109.4,13.7,-1.95,137.2
"2009-11-14 01:23:30",1414533,2.915,179.6,10.85,1.129,2.004,99.21598,-2.698,-1.386,96.9,0,109.4,13.7,-1.96,141.6
"2009-11-14 01:24:00",1414534,3.3,187.3,6.345,0.963,3.831,99.21486,-2.701,-1.334,97,0,109.4,13.7,-1.96,149.3
"2009-11-14 01:24:30",1414535,3.785,188.8,7.193,0.937,2.783,99.21711,-2.695,-1.374,96.9,0,109.4,13.7,-1.95,150.8
"2009-11-14 01:25:00",1414536,3.103,185.4,8.44,1.199,0.259,99.21627,-2.697,-1.545,96.8,0,109.4,13.7,-1.95,147.4
"2009-11-14 01:25:30",1414537,2.04,175.6,4.938,0.213,-1.343,99.21711,-2.695,-1.555,96.8,0,109.4,13.73,-1.95,137.6
"2009-11-14 01:26:00",1414538,2.155,179.2,5.039,0.447,-1.193,99.21767,-2.693,-1.583,96.8,0,109.4,13.73,-1.95,141.2
"2009-11-14 01:26:30",1414539,3.647,197.5,8.41,1.209,2.314,99.21711,-2.695,-1.385,96.9,0,109.4,13.7,-1.95,159.5
"2009-11-14 01:27:00",1414540,4.004,200.2,5.347,0.857,3.478,99.21739,-2.694,-1.359,97,0,109.4,13.7,-1.95,162.2
"2009-11-14 01:27:30",1414541,3.484,193.7,6.693,1.068,2.666,99.21739,-2.694,-1.4,96.9,0,109.4,13.7,-1.95,155.7
"2009-11-14 01:28:00",1414542,3.685,200.8,5.98,1.223,1.831,99.21739,-2.694,-1.376,96.9,0,109.4,13.7,-1.95,162.8
"2009-11-14 01:28:30",1414543,1.934,190.1,3.466,0.468,-0.781,99.21767,-2.693,-1.553,96.8,0,109.4,13.7,-1.95,152.1
"2009-11-14 01:29:00",1414544,2.659,195.9,5.372,1.166,0.08,99.21795,-2.693,-1.512,96.8,0,109.4,13.7,-1.95,157.9
"2009-11-14 01:29:30",1414545,3.742,197.3,5.015,1.221,1.85,99.21795,-2.693,-1.421,96.9,0,109.4,13.7,-1.95,159.3
"2009-11-14 01:30:00",1414546,3.941,205.6,7.498,1.021,2.712,99.21683,-2.696,-1.344,97,0,109.4,13.7,-1.95,167.6
"2009-11-14 01:30:30",1414547,4.377,205.9,6.207,0.979,2.34,99.21795,-2.693,-1.38,96.9,0,109.4,13.7,-1.95,167.9
"2009-11-14 01:31:00",1414548,4.054,203.7,5.89,1.203,1.811,99.21795,-2.693,-1.436,96.9,0,109.4,13.7,-1.95,165.7
"2009-11-14 01:31:30",1414549,3.603,201.7,5.438,1.262,0.717,99.21795,-2.693,-1.528,96.8,0,109.4,13.69,-1.95,163.7
"2009-11-14 01:32:00",1414550,4.328,205.8,6.866,1.276,2.109,99.21795,-2.693,-1.367,96.9,0,109.4,13.69,-1.95,167.8
"2009-11-14 01:32:30",1414551,4.736,202.2,7.575,1.116,2.145,99.21795,-2.693,-1.451,96.9,0,109.4,13.69,-1.95,164.2
"2009-11-14 01:33:00",1414552,4.159,201.5,7.099,1.168,1.967,99.21767,-2.693,-1.403,96.9,0,109.4,13.69,-1.95,163.5
"2009-11-14 01:33:30",1414553,4.497,204.4,7.057,1.049,2.476,99.21795,-2.693,-1.368,97,0,109.4,13.69,-1.95,166.4
"2009-11-14 01:34:00",1414554,4.965,201,6.158,1.065,2.338,99.21795,-2.693,-1.465,96.9,0,109.4,13.69,-1.95,163.0
"2009-11-14 01:34:30",1414555,4.089,198,6.083,1.192,1.915,99.21795,-2.693,-1.344,97,0,109.4,13.69,-1.95,160.0
"2009-11-14 01:35:00",1414556,4.672,199.8,5.65,1.054,2.498,99.21795,-2.693,-1.36,97,0,109.4,13.69,-1.95,161.8
"2009-11-14 01:35:30",1414557,4.713,199.6,5.999,1.156,1.922,99.21795,-2.693,-1.358,97,0,109.4,13.69,-1.95,161.6
"2009-11-14 01:36:00",1414558,4.035,200.2,6.463,1.118,0.821,99.21852,-2.691,-1.492,96.8,0,109.4,13.7,-1.95,162.2
"2009-11-14 01:36:30",1414559,4.935,202.5,5.831,0.969,2.66,99.21965,-2.688,-1.398,96.9,0,109.4,13.7,-1.95,164.5
"2009-11-14 01:37:00",1414560,4.806,202.2,5.399,1.001,2.598,99.22107,-2.685,-1.451,96.9,0,109.4,13.7,-1.94,164.2
"2009-11-14 01:37:30",1414561,4.62,201.3,5.867,1.1,2.238,99.2222,-2.682,-1.362,97,0,109.4,13.7,-1.94,163.3
"2009-11-14 01:38:00",1414562,4.378,201.8,5.799,1.147,1.673,99.22475,-2.675,-1.352,97,0,109.4,13.7,-1.93,163.8
"2009-11-14 01:38:30",1414563,5.132,208.1,4.394,1.067,2.292,99.22503,-2.675,-1.411,96.9,0,109.4,13.7,-1.93,170.1
"2009-11-14 01:39:00",1414564,4.114,203.6,7.571,1.159,0.707,99.2273,-2.669,-1.405,96.9,0,109.4,13.7,-1.93,165.6
"2009-11-14 01:39:30",1414565,5.416,207.3,6.089,1.127,2.503,99.23155,-2.658,-1.397,96.9,0,109.4,13.7,-1.92,169.3
"2009-11-14 01:40:00",1414566,4.948,204.3,7.098,1.205,2.295,99.23382,-2.652,-1.375,97,0,109.4,13.7,-1.91,166.3
"2009-11-14 01:40:30",1414567,5.484,209.8,4.337,0.78,3.743,99.23354,-2.653,-1.284,97,0,109.4,13.7,-1.91,171.8
"2009-11-14 01:41:00",1414568,4.746,212.1,6.225,1.065,2.675,99.23608,-2.647,-1.37,97,0,109.4,13.7,-1.90,174.1
"2009-11-14 01:41:30",1414569,3.957,199.8,6.97,1.19,1.067,99.23637,-2.646,-1.375,96.9,0,109.4,13.7,-1.90,161.8
"2009-11-14 01:42:00",1414570,3.802,196.8,4.436,1.115,0.222,99.23891,-2.639,-1.533,96.8,0,109.4,13.7,-1.90,158.8
"2009-11-14 01:42:30",1414571,4.653,202.1,6.197,1.268,2.127,99.24232,-2.631,-1.332,97,0,109.4,13.7,-1.89,164.1
"2009-11-14 01:43:00",1414572,4.814,207,6.668,1.064,2.76,99.24402,-2.626,-1.34,97,0,109.4,13.7,-1.88,169.0
"2009-11-14 01:43:30",1414573,5.327,217.5,4.509,0.634,3.667,99.24599,-2.621,-1.276,97,0,109.4,13.7,-1.88,179.5
"2009-11-14 01:44:00",1414574,5.112,213.2,4.964,0.897,3.252,99.24742,-2.618,-1.29,97,0,109.4,13.7,-1.87,175.2
"2009-11-14 01:44:30",1414575,4.385,212.5,5.962,1.09,1.787,99.25025,-2.61,-1.406,96.9,0,109.4,13.7,-1.87,174.5
"2009-11-14 01:45:00",1414576,4.296,209.5,8.28,1.279,0.443,99.25138,-2.608,-1.441,96.9,0,109.4,13.7,-1.86,171.5
"2009-11-14 01:45:30",1414577,4.863,212,4.824,1.104,1.155,99.25167,-2.607,-1.482,96.8,0,109.4,13.7,-1.86,174.0
"2009-11-14 01:46:00",1414578,5.436,213.3,5.606,1.047,3.081,99.25138,-2.608,-1.294,97,0,109.4,13.69,-1.86,175.3
"2009-11-14 01:46:30",1414579,5.841,214,4.057,0.629,4.048,99.25195,-2.606,-1.258,97.1,0,109.4,13.69,-1.86,176.0